This demonstration page uses our WeatherBlox Daily Observations layout. Learn more.

38.89511, -77.03637

Hourly Observations for June 10, 2020

Temp ( °F °C ) Dew Point ( °F °C ) Humidity (%) Winds ( mph kmh ) Pressure ( in mb ) Visibility ( mi km ) Precip ( " mm )
12:52 am 00:52 Mostly Cloudy 78 25.6 71 21.7 79 79 S 10 17 29.94 1014 10 16.0934 0 0
1:52 am 01:52 Mostly Cloudy 78 25.6 71 21.7 79 79 S 10 17 29.93 1014 10 16.0934 0 0
2:52 am 02:52 Mostly Cloudy 77 25 71 21.7 82 82 S 8 13 29.93 1014 10 16.0934 0 0
3:52 am 03:52 Partly Cloudy 76 24.4 71 21.7 85 85 S 9 15 29.92 1013 10 16.0934 0 0
4:52 am 04:52 Mostly Cloudy 76 24.4 71 21.7 85 85 S 9 15 29.92 1013 10 16.0934 0 0
5:52 am 05:52 Mostly Cloudy 76 24.4 72 22.2 88 88 S 8 13 29.92 1013 10 16.0934 0 0
6:52 am 06:52 Mostly Cloudy 77 25 73 22.8 88 88 SSW 12 19 29.94 1014 10 16.0934 0 0
7:06 am 07:06 Mostly Cloudy 77 25 73 22.8 88 88 S 13 20 29.94 1014 10 16.0934 0 0
7:52 am 07:52 Cloudy 78 25.6 73 22.8 85 85 S 10 17 29.95 1014 10 16.0934 0 0
8:52 am 08:52 Cloudy 79 26.1 73 22.8 82 82 S 14 22 29.95 1014 10 16.0934 0 0
9:34 am 09:34 Mostly Cloudy 81 27.2 73 22.8 77 77 SW 12 19 29.95 1014 10 16.0934 0 0
9:52 am 09:52 Mostly Cloudy 81 27.2 74 23.3 79 79 SSW 10 17 29.95 1014 10 16.0934 0 0
10:40 am 10:40 Partly Cloudy 84 28.9 75 23.9 74 74 S 12 19 29.95 1014 10 16.0934 0 0
10:52 am 10:52 Mostly Cloudy 84 28.9 75 23.9 74 74 S 13 20 29.95 1014 10 16.0934 0 0
11:52 am 11:52 Mostly Cloudy 86 30 76 24.4 72 72 S 15 24 29.94 1014 10 16.0934 0 0
12:00 pm 12:00 Partly Cloudy 86 30 76 24.4 72 72 S 15 24 29.94 1014 10 16.0934 0 0
12:24 pm 12:24 Mostly Cloudy 85 29.4 75 23.9 72 72 S 17 28 29.94 1014 10 16.0934 0 0
12:52 pm 12:52 Mostly Cloudy 86 30 75 23.9 70 70 S 16 26 29.93 1014 10 16.0934 0 0
1:52 pm 13:52 Mostly Cloudy 87 30.6 75 23.9 67 67 S 17 28 29.92 1013 10 16.0934 0 0
2:52 pm 14:52 Mostly Cloudy 89 31.7 76 24.4 65 65 S 13 20 29.91 1013 10 16.0934 0 0
3:52 pm 15:52 Mostly Cloudy 88 31.1 75 23.9 66 66 S 18 30 29.9 1012 10 16.0934 0 0
4:52 pm 16:52 Mostly Cloudy 89 31.7 74 23.3 61 61 S 17 28 29.88 1012 10 16.0934 0 0
5:52 pm 17:52 Mostly Cloudy 88 31.1 75 23.9 66 66 S 16 26 29.88 1012 10 16.0934 0 0
6:52 pm 18:52 Mostly Cloudy 87 30.6 75 23.9 67 67 S 15 24 29.89 1012 10 16.0934 0 0
7:47 pm 19:47 Mostly Cloudy with Nearby Thunderstorms 84 29 75 24 74 74 S 10 17 29.89 1012 10 16.0934 0 0
7:52 pm 19:52 Mostly Cloudy with Nearby Thunderstorms 85 29.4 75 23.9 72 72 S 9 15 29.89 1012 10 16.0934 0 0
8:01 pm 20:01 Mostly Cloudy with Thunderstorms 85 29.4 75 23.9 72 72 S 10 17 29.88 1012 10 16.0934 0 0
8:25 pm 20:25 Mostly Cloudy with Thunderstorms 85 29.4 75 23.9 72 72 S 8 13 29.88 1012 10 16.0934 0 0
8:31 pm 20:31 Mostly Cloudy 85 29.4 75 23.9 72 72 S 12 19 29.88 1012 10 16.0934 0 0
8:52 pm 20:52 Mostly Cloudy 85 29.4 74 23.3 70 70 S 23 37 29.88 1012 10 16.0934 0 0
9:52 pm 21:52 Mostly Cloudy 83 28.3 73 22.8 72 72 S 17 28 29.9 1013 10 16.0934 0 0
10:39 pm 22:39 Mostly Cloudy 82 27.8 74 23.3 77 77 S 17 28 29.93 1013 10 16.0934 0.001 0.001
10:52 pm 22:52 Mostly Cloudy 82 27.8 74 23.3 77 77 S 16 26 29.93 1013 10 16.0934 0.001 0.001
11:52 pm 23:52 Cloudy with Rain 80 26.7 75 23.9 85 85 S 15 24 29.93 1014 7 11.26538 0.02 0.508

Powered by AerisWeather